Temperature
16 16 16 16 16 16 16 16 16 15 15 15 15 15 16 16 16 16 16 16 15 15 15 15 15 15 15 15 15 15 15 15 15 15 15 15 15 14
16 16 16 16 16 16 16 16 15 15 15 15 15 15 15 15 15 15 15 15 15 15 15 15 15 15 15 15 15 15 15 15 15 15 15 15 15 14
16 16 16 16 15 15 15 15 15 15 15 15 15 15 15 15 15 15 15 15 15 15 15 15 15 15 15 14 14 14 14 15 14 14 14 15 14 14
15 15 15 15 15 15 15 15 15 15 15 15 15 15 15 15 15 15 15 15 15 15 15 14 14 14 14 14 14 14 14 14 14 14 14 14 14 14
15 15 15 15 15 15 15 15 15 14 14 14 14 14 14 14 14 14 14 14 14 14 14 14 14 14 14 14 14 14 14 14 14 14 14 14 14 14
15 15 15 15 15 14 14 14 14 14 14 14 14 14 14 14 14 14 14 14 14 14 14 14 14 14 14 14 14 14 14 14 14 14 14 14 14 14
14 14 14 14 14 14 14 14 14 14 14 14 13 13 13 13 13 13 13 13 13 14 14 14 14 14 14 14 14 14 14 13 13 13 13 13 13 13
14 14 14 14 14 14 14 14 13 13 13 13 13 13 13 13 13 13 13 13 13 13 13 13 13 13 13 13 13 13 13 13 13 13 13 13 13 13
13 13 13 13 13 13 13 13 13 13 13 13 13 13 13 13 13 12 12 12 12 12 12 13 13 13 13 13 13 13 13 13 13 13 13 13 13 13
13 13 13 13 13 13 13 13 13 13 13 12 12 12 12 12 12 12 12 12 12 12 12 12 12 13 13 13 13 13 13 13 13 13 13 13 13 13
13 13 13 13 13 13 13 13 12 12 12 12 12 12 12 12 12 12 12 12 12 12 12 11 12 12 12 12 12 12 12 12 12 12 12 12 12 12
13 13 13 13 12 12 12 12 12 12 12 12 12 12 12 12 11 11 11 11 11 11 11 11 11 11 11 12 12 12 12 12 12 12 12 12 12 12
12 12 12 12 12 12 12 12 12 12 12 11 11 11 11 11 11 11 11 11 11 11 11 11 11 11 11 11 12 12 12 12 12 12 12 12 12 12
12 12 11 12 12 12 12 11 11 11 11 11 11 11 11 11 11 11 11 11 10 10 10 10 10 11 11 11 11 11 11 11 11 11 11 11 11 11
12 11 11 11 11 11 11 11 11 11 11 11 11 10 10 10 10 10 10 10 10 10 10 10 10 10 10 10 10 11 11 11 11 11 11 11 11 11
11 11 11 11 11 11 11 11 11 11 11 10 10 10 10 10 10 10 10 10 10 10 10 10 10 10 10 10 10 10 10 10 10 10 10 10 10 10
11 11 11 11 11 11 11 10 10 10 10 10 10 10 10 10 9 9 9 10 10 10 10 10 10 10 10 10 10 10 10 10 10 10 10 10 10 10
11 11 11 10 10 10 10 10 10 10 10 10 10 9 9 9 9 9 9 9 9 9 9 9 9 9 9 9 9 9 9 9 9 9 9 9 9 9
10 10 10 10 10 10 10 10 10 10 9 9 9 9 9 9 9 9 9 9 9 9 9 9 9 9 9 9 9 9 9 9 9 8 9 9 9 9
10 10 10 10 10 10 9 9 9 9 9 9 9 9 9 9 8 8 8 8 8 8 8 8 8 8 8 8 8 8 8 8 8 8 8 8 8 8
10 9 9 9 9 9 9 9 9 9 9 9 9 9 9 8 8 8 8 8 8 8 8 8 8 8 8 8 8 8 8 8 8 8 8 8 8 8
9 9 9 9 9 9 9 9 9 9 9 8 8 8 8 8 8 8 8 8 8 8 8 8 8 8 8 8 8 8 8 8 8 8 8 8 8 7
9 9 9 9 9 9 9 9 8 8 8 8 8 8 8 8 8 8 8 8 8 8 8 8 8 8 8 8 8 8 8 7 7 7 7 7 7 7
Wind_Speed
1 1 1 1 0 1 1 2 3 2 3 3 2 2 3 4 5 5 6 8 9 10 11 11 11 10 10 10 11 11 11 11 10 10 10 10 10 11
0 0 0 1 1 0 1 1 1 2 3 3 3 2 2 3 5 5 6 7 9 10 11 11 10 10 10 10 10 11 10 10 10 10 10 10 10 11
1 1 1 0 0 1 0 1 1 1 2 3 2 2 1 2 2 3 4 5 6 8 10 11 11 10 10 10 11 11 11 10 10 11 11 11 11 11
1 0 1 1 1 1 0 1 1 1 2 3 2 2 2 3 3 3 3 3 4 6 8 11 11 11 11 11 11 12 11 11 11 11 11 11 11 11
1 1 2 1 1 1 1 1 1 1 0 1 2 2 2 2 2 2 3 3 4 4 6 8 10 10 10 10 11 11 11 11 11 11 11 10 10 10
1 1 1 1 1 1 1 1 1 1 0 1 1 2 2 2 1 2 2 3 3 3 4 5 7 8 9 9 10 10 11 11 10 10 10 10 10 10
1 1 1 0 0 1 1 1 1 1 1 1 2 2 2 1 2 2 3 3 3 2 2 3 4 4 5 7 8 9 9 9 9 10 10 10 10 11
1 2 1 2 2 2 2 1 2 3 3 3 3 3 4 3 2 2 2 2 3 2 2 3 3 4 5 5 7 8 8 9 10 10 10 10 10 10
1 1 1 2 1 1 2 2 1 1 3 4 4 5 4 4 3 2 2 2 4 4 2 4 3 4 5 6 9 9 10 10 10 10 10 10 10 9
1 1 1 2 1 1 1 2 2 2 2 2 4 5 4 4 4 4 3 2 2 2 2 3 3 4 5 6 8 10 11 10 10 10 9 9 9 8
3 2 1 2 3 1 1 1 2 3 3 2 3 3 3 3 1 1 0 0 2 2 1 2 3 3 3 4 7 9 10 10 10 10 10 9 8 7
3 3 3 2 3 2 2 2 2 3 2 3 3 3 3 2 1 2 2 2 1 2 2 1 2 1 2 3 3 4 5 8 9 8 9 8 7 6
3 3 3 5 4 3 3 3 4 3 2 1 1 2 2 2 2 1 2 3 2 3 2 1 1 1 2 2 2 2 3 3 4 5 7 7 7 7
3 3 4 5 4 4 2 3 3 2 1 1 1 2 2 3 3 2 2 3 3 4 4 2 2 2 1 1 2 2 2 2 2 2 3 4 5 7
3 5 5 4 3 2 3 3 2 1 1 1 2 2 3 3 2 2 2 2 2 3 2 2 2 2 2 2 2 2 2 2 1 2 2 2 2 2
4 4 4 3 2 2 2 2 1 1 1 2 2 3 2 1 1 1 1 1 1 3 3 2 2 2 2 2 2 2 1 1 1 1 1 1 1 2
3 2 2 2 2 2 2 2 2 1 1 1 2 2 2 2 2 1 1 0 1 2 3 3 2 1 2 1 1 2 1 1 1 1 0 1 1 2
1 1 2 2 2 2 2 2 2 2 2 2 2 2 3 3 2 2 1 1 2 3 3 3 2 2 2 2 1 2 2 2 1 1 1 1 2 2
1 1 2 2 3 3 2 2 3 3 2 2 3 3 3 3 2 2 2 2 2 3 3 2 1 1 1 3 3 2 1 1 1 1 1 1 2 3
2 3 3 3 3 3 3 3 3 3 3 3 3 3 3 3 3 3 3 3 2 2 2 2 2 3 4 4 3 3 3 2 2 2 2 1 2 3
3 3 3 3 3 3 4 4 4 4 3 3 3 4 3 3 3 3 3 4 3 2 3 4 4 4 2 1 0 2 3 3 3 3 2 1 1 1
3 4 4 3 3 3 3 4 4 4 4 4 4 4 4 3 4 4 3 3 3 3 4 4 3 1 1 2 3 3 3 3 3 3 3 4 3 3
4 4 4 4 4 3 3 4 4 5 5 5 5 4 4 3 3 3 3 3 3 3 2 2 2 1 2 2 3 2 3 2 2 1 2 5 3 4
Wind_Direction
240 218 226 262 194 182 169 175 177 221 256 248 245 248 229 220 226 220 225 229 224 221 221 222 223 223 223 224 220 221 224 228 229 230 231 235 238 239
207 103 326 285 335 326 188 186 181 201 238 250 252 253 240 242 239 224 226 231 231 227 223 222 224 225 223 222 219 221 223 227 230 232 232 234 237 240
339 47 321 299 328 305 215 181 196 193 231 270 287 289 259 251 248 232 236 226 229 230 225 222 223 225 226 226 224 224 225 228 231 234 235 235 238 241
300 350 313 329 352 310 289 233 219 213 204 254 288 297 279 251 239 235 247 238 227 229 225 223 223 225 226 229 228 228 228 231 232 234 236 237 238 238
277 254 274 322 328 314 300 265 249 234 182 210 273 287 293 279 271 265 255 254 247 238 228 225 221 224 226 229 229 232 234 233 232 234 236 237 239 239
283 273 274 256 241 244 250 258 231 202 185 197 259 284 288 288 268 270 276 275 261 252 241 234 231 231 232 234 235 236 236 234 232 232 233 235 237 239
306 291 285 336 16 286 265 231 194 195 209 225 243 274 283 289 263 262 260 269 271 252 254 250 237 236 240 243 240 239 236 236 234 232 234 237 239 239
321 303 305 326 334 339 342 284 214 207 220 227 242 247 259 255 254 251 254 257 267 256 226 257 226 237 242 237 236 237 241 239 238 237 238 241 243 244
322 302 310 334 334 315 339 359 342 279 216 209 226 244 248 247 239 249 244 240 244 240 213 248 238 239 242 241 239 238 241 241 242 241 240 239 241 242
282 256 259 296 318 330 1 5 337 314 277 227 229 245 246 240 223 225 225 244 270 257 201 237 248 243 246 243 242 241 242 239 239 237 237 237 236 238
312 305 269 272 293 314 88 352 328 322 326 319 295 282 278 266 214 135 107 118 285 283 228 206 252 256 248 246 247 243 240 239 243 242 239 240 240 238
323 322 311 295 283 243 189 197 266 285 308 339 350 345 328 312 295 199 200 205 243 274 271 219 247 247 280 265 253 258 247 248 250 251 245 243 239 229
314 311 307 307 290 264 225 213 239 256 263 265 311 331 334 326 302 267 215 199 212 245 254 195 232 249 235 276 289 266 244 250 254 258 254 246 234 218
287 290 294 300 291 281 263 264 266 270 257 293 314 312 302 296 291 282 260 232 223 230 240 200 205 215 221 254 275 288 279 268 240 242 252 247 240 238
282 290 296 293 293 297 308 299 293 258 230 260 273 275 267 264 284 310 309 293 281 269 260 226 212 218 204 224 251 270 290 296 253 232 241 216 219 225
308 312 310 308 320 324 334 331 314 247 209 236 258 268 283 302 306 294 299 318 331 315 310 281 237 205 221 245 231 253 255 259 288 259 245 256 248 232
320 337 351 356 349 343 342 333 327 336 299 288 272 287 295 298 294 286 275 293 256 284 304 321 316 266 217 201 241 256 254 265 261 260 193 275 277 251
45 350 316 302 290 289 300 311 309 290 276 272 269 266 267 267 276 286 268 229 250 266 271 285 327 352 354 348 293 251 261 250 263 249 198 216 269 275
137 272 276 274 269 270 270 272 277 277 273 266 264 268 264 263 268 266 261 261 263 265 270 269 258 228 273 286 302 294 232 252 246 250 238 217 243 261
239 247 255 262 259 258 262 265 272 284 281 275 275 273 264 256 262 267 259 251 258 269 282 281 247 234 234 238 249 283 285 229 222 239 249 262 278 283
257 257 257 258 260 263 263 261 261 264 270 266 272 275 270 260 260 260 259 262 262 267 271 271 265 264 257 145 269 292 293 274 231 219 217 215 266 300
263 261 261 263 266 267 268 268 266 262 261 262 264 266 266 261 258 258 254 258 262 259 261 272 287 301 233 210 230 252 277 303 300 289 261 224 196 205
258 258 256 260 264 265 265 267 268 268 262 260 262 263 260 259 260 257 260 259 265 276 278 279 291 283 253 220 219 236 252 272 289 316 310 303 271 236
Height
1514 1514 1514 1514 1514 1514 1514 1514 1515 1514 1513 1514 1515 1515 1515 1516 1516 1516 1515 1515 1515 1515 1515 1516 1516 1516 1517 1517 1518 1519 1519 1520 1521 1521 1522 1522 1523 1523
1513 1513 1512 1512 1512 1512 1512 1512 1512 1512 1511 1511 1511 1512 1512 1513 1513 1513 1512 1512 1512 1512 1512 1513 1513 1513 1514 1514 1515 1516 1516 1517 1517 1518 1518 1519 1519 1519
1511 1511 1511 1510 1510 1510 1510 1510 1510 1510 1508 1508 1509 1509 1509 1509 1509 1509 1509 1508 1508 1509 1509 1509 1510 1510 1511 1511 1512 1512 1513 1513 1514 1514 1514 1515 1515 1515
1510 1509 1509 1509 1508 1508 1507 1507 1507 1507 1506 1505 1505 1506 1506 1505 1505 1504 1505 1505 1505 1505 1505 1506 1507 1507 1507 1508 1508 1509 1509 1510 1510 1510 1511 1511 1511 1511
1508 1507 1507 1507 1506 1506 1505 1505 1505 1504 1504 1503 1502 1502 1502 1502 1501 1501 1501 1501 1501 1501 1502 1502 1503 1504 1504 1505 1505 1506 1506 1506 1506 1506 1507 1507 1507 1507
1506 1506 1505 1504 1504 1503 1503 1503 1502 1502 1501 1500 1499 1499 1499 1498 1498 1497 1496 1497 1497 1498 1498 1498 1499 1500 1501 1501 1502 1502 1502 1503 1502 1502 1502 1503 1503 1503
1504 1503 1503 1502 1501 1501 1500 1500 1499 1499 1498 1497 1496 1496 1495 1495 1494 1494 1493 1493 1493 1494 1494 1494 1495 1496 1496 1497 1498 1498 1498 1499 1499 1499 1499 1499 1499 1499
1502 1501 1500 1500 1499 1498 1498 1497 1497 1496 1495 1494 1493 1493 1492 1492 1491 1491 1490 1489 1489 1490 1490 1490 1491 1491 1492 1492 1493 1493 1494 1494 1495 1495 1494 1494 1495 1495
1499 1498 1497 1497 1496 1495 1495 1494 1494 1493 1493 1492 1491 1490 1489 1489 1488 1487 1487 1486 1486 1486 1487 1486 1487 1486 1487 1488 1489 1489 1490 1490 1490 1490 1490 1490 1490 1490
1497 1496 1495 1494 1493 1493 1492 1491 1491 1490 1489 1489 1488 1487 1487 1486 1485 1484 1483 1483 1483 1483 1483 1482 1482 1482 1483 1483 1484 1485 1485 1486 1486 1486 1486 1486 1486 1486
1495 1494 1493 1492 1491 1490 1489 1488 1488 1487 1486 1486 1485 1484 1484 1483 1482 1481 1480 1480 1479 1479 1479 1478 1478 1478 1478 1479 1480 1480 1481 1481 1481 1481 1481 1481 1482 1482
1492 1491 1490 1489 1488 1487 1486 1485 1484 1484 1483 1482 1482 1481 1480 1479 1479 1478 1478 1477 1476 1476 1476 1476 1475 1475 1475 1475 1475 1476 1476 1476 1477 1477 1477 1477 1477 1477
1490 1488 1487 1486 1485 1484 1484 1483 1482 1482 1481 1480 1479 1478 1477 1476 1476 1475 1475 1475 1474 1474 1474 1474 1473 1472 1472 1472 1471 1472 1472 1472 1472 1472 1472 1472 1472 1472
1488 1486 1485 1484 1482 1482 1481 1481 1480 1479 1478 1477 1476 1475 1474 1473 1473 1473 1472 1472 1472 1471 1471 1471 1470 1470 1470 1469 1468 1468 1468 1468 1467 1467 1467 1468 1468 1468
1485 1484 1483 1482 1480 1479 1479 1478 1477 1476 1475 1474 1473 1473 1472 1471 1471 1470 1470 1469 1469 1469 1468 1468 1468 1467 1467 1466 1465 1465 1464 1463 1464 1463 1463 1463 1463 1463
1483 1482 1481 1480 1478 1477 1476 1476 1474 1473 1472 1471 1471 1470 1470 1469 1468 1467 1466 1466 1466 1465 1465 1465 1465 1464 1464 1463 1463 1462 1461 1461 1460 1460 1459 1459 1459 1458
1480 1479 1478 1477 1476 1474 1474 1473 1472 1471 1469 1469 1468 1467 1466 1465 1465 1464 1464 1463 1463 1462 1462 1462 1462 1461 1461 1460 1459 1459 1458 1458 1457 1457 1456 1455 1455 1454
1479 1477 1476 1475 1473 1472 1471 1470 1469 1468 1467 1466 1464 1464 1463 1462 1461 1461 1461 1460 1459 1459 1459 1459 1458 1457 1457 1457 1457 1455 1455 1454 1454 1454 1453 1452 1451 1451
1477 1475 1474 1473 1472 1471 1469 1468 1467 1466 1464 1463 1462 1461 1460 1459 1458 1457 1457 1457 1456 1456 1456 1456 1455 1454 1453 1452 1453 1453 1452 1451 1451 1451 1450 1449 1448 1448
1474 1473 1472 1471 1469 1468 1467 1465 1464 1463 1462 1460 1459 1458 1457 1456 1455 1455 1454 1454 1453 1453 1452 1452 1451 1451 1451 1450 1450 1449 1449 1449 1448 1448 1447 1447 1446 1446
1471 1470 1469 1468 1467 1465 1464 1462 1461 1460 1458 1457 1456 1455 1454 1453 1452 1451 1451 1451 1450 1450 1449 1448 1448 1449 1448 1448 1447 1446 1446 1446 1446 1445 1445 1444 1444 1443
1469 1467 1466 1465 1463 1462 1460 1459 1457 1456 1455 1453 1452 1451 1450 1450 1449 1448 1447 1447 1446 1446 1445 1445 1445 1445 1445 1444 1444 1443 1443 1443 1443 1443 1443 1442 1441 1440
1465 1464 1462 1461 1459 1458 1456 1454 1453 1452 1451 1449 1448 1447 1446 1446 1445 1444 1444 1443 1443 1442 1442 1442 1442 1441 1441 1441 1441 1440 1440 1440 1440 1440 1440 1439 1439 1439